Regional Weather Roundup
Issued by NWS

Home | Current Version | Previous Version | Text Only | Print | Product List | Glossary Off
Versions: 1 2 3 4 5 6 7 8 9 10 11 12 13 14 15 16 17 18 19 20 21 22 23 24 25 26 27 28 29 30 31 32 33 34 35 36 37 38 39 40 41 42 43 44 45 46 47 48 49 50

000
ASUS43 KMPX 180210
RWRMN
WEATHER ROUNDUP FOR MINNESOTA
NATIONAL WEATHER SERVICE TWIN CITIES/CHANHASSEN MN
900 PM CDT THU APR 17 2014


NOTE: "FAIR" INDICATES FEW OR NO CLOUDS BELOW 12,000 FEET WITH NO
SIGNIFICANT WEATHER AND/OR OBSTRUCTIONS TO VISIBILITY. N/A MEANS
CURRENT SKY AND/OR WEATHER CONDITIONS ARE NOT AVAILABLE.

MNZ060>063-068>070-180300-
   Twin Cities Metro

CITY           SKY/WX    TMP DP  RH WIND       PRES   REMARKS
TWIN CITIES    CLEAR     37  25  61 W5        30.31R
ST PAUL        CLEAR     37  24  59 N3        30.32R
CRYSTAL        CLEAR     36  24  62 W3        30.30R
BLAINE         CLEAR     37  27  65 SW3       30.30R
EDEN PRAIRIE   CLEAR     37  24  59 CALM      30.30R
LAKEVILLE      CLEAR     34  27  75 W5        30.31R WCI  30
SOUTH ST PAUL  CLEAR     38  27  64 CALM      30.31R
LAKE ELMO      FAIR      34  28  80 CALM      30.31R
$$
MNZ001>005-007-008-013>017-022>024-027-028-180300-
   Northwest Minnesota

CITY           SKY/WX    TMP DP  RH WIND       PRES   REMARKS
BEMIDJI        MOCLDY    34   5  29 CALM      30.25S
HALLOCK        CLOUDY    34  16  47 N6        30.30S WCI  29
ROSEAU         CLEAR     34  12  40 E6        30.29R WCI  29
WARROAD        CLEAR     28  14  54 CALM      30.30S
THIEF RVR FALL MOCLDY    34  19  55 NW8       30.29R WCI  27
CROOKSTON      MOCLDY    36  25  64 NW6       30.31R
FOSSTON        MOCLDY    30  18  59 CALM      30.27S
DETROIT LAKES  CLEAR     36  19  51 NW6       30.27S
MOORHEAD       PTCLDY    37  18  44 NE2       30.29R
PARK RAPIDS    CLEAR     31  11  43 W5        30.24R WCI  26
$$
MNZ006-009>011-018-025>026-180300-
   North Central Minnesota

CITY           SKY/WX    TMP DP  RH WIND       PRES   REMARKS
BAUDETTE       CLEAR     30  11  45 NW5       30.29R WCI  25
FLAG ISLAND    CLEAR     30   7  37 SW3       30.29R
INTL FALLS     CLEAR     29  19  66 E6        30.27R WCI  23
WASKISH        CLEAR     32  14  47 N3        30.28R
BIG FORK       CLEAR     30  19  64 E3        30.28R
LONGVILLE      PTCLDY    28  18  64 CALM      30.26R
GRAND RAPIDS   CLEAR     32  18  55 CALM      30.27R
CRANE LAKE     CLEAR     23  14  68 CALM      30.31R
ORR            CLEAR     28  18  64 CALM      30.26R
COOK           CLEAR     27  21  80 CALM      30.28S
$$
MNZ012-019>021-037-180300-
   Northeast Minnesota

CITY           SKY/WX    TMP DP  RH WIND       PRES   REMARKS
DULUTH         PTCLDY    32  20  61 N3        30.27R
ELY            CLOUDY    30  21  69 CALM      30.27S
HIBBING        CLEAR     30  20  66 CALM      30.28R
EVELETH        CLOUDY    32  21  64 CALM      30.29R
DULUTH HARBOR  CLEAR     34  25  69 CALM      30.31S
TWO HARBORS    CLOUDY    34  21  60 CALM      30.27R
SILVER BAY     CLEAR     30  23  74 NW5       30.27R WCI  25
GRAND MARAIS     N/A     32  31  96 CALM      30.27R
G MARAIS ARPRT CLOUDY    28  23  80 NW5       30.23R WCI  23
$$
MNZ029>031-032-039>041-046>048-054>057-064-180300-
   West Central Minnesota

CITY           SKY/WX    TMP DP  RH WIND       PRES   REMARKS
FERGUS FALLS   CLEAR     34  16  47 NW6       30.26R WCI  29
WHEATON        CLEAR     39  21  48 S3        30.30R
MORRIS         CLEAR     34  25  69 S3        30.28R
ALEXANDRIA     CLEAR     35  17  47 S6        30.27R WCI  30
ELBOW LAKE     FAIR      34  24  68 NW3       30.27R
WADENA         CLEAR     34  18  51 W6        30.25S WCI  29
GLENWOOD       CLEAR     34  19  55 S3        30.28R
APPLETON       CLEAR     36  27  69 CALM      30.29R
BENSON         CLEAR     34  23  64 W3        30.29S
ORTONVILLE     CLEAR     34  18  51 S3        30.28S
MADISON        CLEAR     36  27  69 S5        30.29S
WILLMAR        FAIR      36  21  55 CALM      30.31R
$$
MNZ033>034-036-042>043-049>051-058-059-180300-
   Central Minnesota

CITY           SKY/WX    TMP DP  RH WIND       PRES   REMARKS
ST CLOUD       CLEAR     35  23  61 SW6       30.29R WCI  30
SAUK CENTRE    FAIR      31  21  67 SW5       30.28R WCI  26
PAYNESVILLE    CLEAR     32  21  64 CALM      30.29S
AITKIN         CLEAR     36  21  55 NE6       30.26R
PINE RIVER     CLEAR     34  18  51 CALM      30.28R
BRAINERD       CLEAR     37  19  48 S7        30.26R
STAPLES        CLEAR     30  18  59 W6        30.25R WCI  24
LONG PRAIRIE   FAIR      32  21  64 CALM      30.27R
LITTLE FALLS   CLEAR     32  21  64 SE3       30.28R
LITCHFIELD     CLEAR     32  25  74 CALM      30.31R
BUFFALO        CLEAR     34  25  70 CALM      30.31S
MAPLE LAKE     CLEAR     33  26  73 CALM      30.31R
$$
MNZ037-044-045-052-053-180300-
   East Central Minnesota

CITY           SKY/WX    TMP DP  RH WIND       PRES   REMARKS
PRINCETON      CLEAR     32  23  69 CALM      30.30R
MORA           CLEAR     34  23  64 CALM      30.30R
CAMBRIDGE      CLEAR     36  25  64 CALM      30.28R
RUSH CITY      CLEAR     32  24  70 CALM      30.29R
MOOSE LAKE     PTCLDY    34  23  64 CALM      30.27R
HINCKLEY       CLOUDY    32  27  80 CALM      30.28R
CLOQUET        CLEAR     30  21  69 CALM      30.29R
MCGREGOR       MOCLDY    34  25  69 NE5       30.28R WCI  30
$$
MNZ071>073-080-081-089-090-097-098-180300-
   Southwest Minnesota

CITY           SKY/WX    TMP DP  RH WIND       PRES   REMARKS
MONTEVIDEO     CLEAR     32  19  59 CALM      30.31R
GRANITE FALLS  CLEAR     31  22  69 SW3       30.32R
CANBY          PTCLDY    32  22  67 CALM      30.30S
MARSHALL       PTCLDY    34  19  55 CALM      30.29R
REDWOOD FALLS  CLEAR     34  25  69 W3        30.30S
OLIVIA         CLEAR     32  27  80 CALM      30.30R
PIPESTONE      MOCLDY    34  23  64 E5        30.26R WCI  30
WINDOM         PTCLDY    30  28  93 N5        30.29S WCI  25
WORTHINGTON    PTCLDY    34  23  64 NE5       30.29S WCI  30
JACKSON        MOCLDY    34  28  80 N6        30.29S WCI  29
TRACY          PTCLDY    31  26  83 CALM      30.30R
SLAYTON        PTCLDY    32  25  76 NE3       30.28S
$$
MNZ065>067-074>077-082>085-091>093-180300-
   South Central Minnesota

CITY           SKY/WX    TMP DP  RH WIND       PRES   REMARKS
MANKATO        CLEAR     36  27  69 N6        30.31R
NEW ULM        CLEAR     34  27  75 CALM      30.30S
ST JAMES       PTCLDY    36  28  75 N3        30.31R
FAIRMONT       PTCLDY    37  28  70 N5        30.31R
GLENCOE        CLEAR     35  25  68 NW5       30.30S WCI  31
FARIBAULT      CLEAR     37  27  65 CALM      30.30S
OWATONNA       CLEAR     34  28  80 CALM      30.30S
WASECA         CLEAR     34  30  86 CALM      30.31S
ALBERT LEA     CLEAR     34  30  86 CALM      30.30R
$$
MNZ078>079-086>088-094>096-180300-
   Southeast Minnesota

CITY           SKY/WX    TMP DP  RH WIND       PRES   REMARKS
ROCHESTER      CLEAR     33  26  75 CALM      30.30R
RED WING       CLEAR     32  27  80 CALM      30.30R
STANTON        CLEAR     36  28  71 CALM      30.30R
DODGE CENTER   CLEAR     36  32  87 CALM      30.30R
WINONA         CLOUDY    37  30  75 NE5       30.32R
AUSTIN         PTCLDY    34  28  80 CALM      30.30R
PRESTON        CLOUDY    35  29  78 N6        30.30R WCI  30
$$
ABBREVIATIONS USED IN REMARKS
   TC - TEMPERATURES IN CELSIUS
  WCI - WIND CHILL INDEX
   HX - HEAT INDEX
  VSB - VISIBILITY
$$



USA.gov is the U.S. government's official web portal to all federal, state and local government web resources and services.